SMR46 UTDD-UTDL

Flight info

Callsign SMR46
Flight time 0h 48m
Altitude 26000
Route SX7 SX A103 PF PF4A
Aircraft B738/M-SD3L/L

Departure

Time 2026-04-15 14:35
Airport Dushanbe International Airport (UTDD)

Arrival

Time 2026-04-15 15:23
Airport Khujand International Airport (UTDL)
Time Latitude Longitude Altitude Speed Heading
2026-04-15 14:16 38.54796 68.81507 2574 ft 0 kts 30°
2026-04-15 14:21 38.54799 68.81509 2574 ft 3 kts 30°
2026-04-15 14:21 38.54801 68.81511 2574 ft 0 kts 30°
2026-04-15 14:26 38.54794 68.81506 2574 ft 2 kts 30°
2026-04-15 14:27 38.54780 68.81495 2571 ft 2 kts 30°
2026-04-15 14:27 38.54766 68.81485 2569 ft 2 kts 30°
2026-04-15 14:27 38.54752 68.81474 2570 ft 2 kts 30°
2026-04-15 14:27 38.54742 68.81467 2569 ft 0 kts 30°
2026-04-15 14:28 38.54729 68.81457 2570 ft 2 kts 30°
2026-04-15 14:29 38.54714 68.81447 2568 ft 2 kts 29°
2026-04-15 14:29 38.54700 68.81437 2568 ft 2 kts 29°
2026-04-15 14:29 38.54686 68.81427 2568 ft 2 kts 29°
2026-04-15 14:29 38.54684 68.81425 2568 ft 0 kts 29°
2026-04-15 14:30 38.54686 68.81425 2568 ft 1 kts 15°
2026-04-15 14:30 38.54690 68.81421 2569 ft 1 kts 334°
2026-04-15 14:30 38.54692 68.81413 2570 ft 1 kts 286°
2026-04-15 14:30 38.54691 68.81400 2571 ft 2 kts 266°
2026-04-15 14:31 38.54689 68.81369 2574 ft 5 kts 265°
2026-04-15 14:31 38.54685 68.81317 2571 ft 7 kts 265°
2026-04-15 14:31 38.54684 68.81247 2576 ft 9 kts 270°
2026-04-15 14:31 38.54684 68.81161 2577 ft 11 kts 270°
2026-04-15 14:32 38.54685 68.81058 2578 ft 12 kts 270°
2026-04-15 14:32 38.54684 68.80941 2578 ft 14 kts 269°
2026-04-15 14:32 38.54683 68.80812 2579 ft 15 kts 269°
2026-04-15 14:32 38.54677 68.80684 2582 ft 10 kts 245°
2026-04-15 14:33 38.54634 68.80650 2579 ft 7 kts 178°
2026-04-15 14:33 38.54578 68.80653 2580 ft 9 kts 176°
2026-04-15 14:33 38.54503 68.80659 2580 ft 12 kts 176°
2026-04-15 14:33 38.54412 68.80671 2580 ft 14 kts 162°
2026-04-15 14:34 38.54369 68.80738 2574 ft 7 kts 90°
2026-04-15 14:34 38.54370 68.80851 2575 ft 35 kts 90°
2026-04-15 14:34 38.54370 68.81520 2574 ft 113 kts 90°
2026-04-15 14:34 38.54399 68.82814 2652 ft 168 kts 86°
2026-04-15 14:35 38.54437 68.84137 3856 ft 134 kts 89°
2026-04-15 14:35 38.54415 68.85365 4472 ft 161 kts 90°
2026-04-15 14:35 38.54346 68.86961 4975 ft 181 kts 91°
2026-04-15 14:35 38.54290 68.88674 5509 ft 207 kts 89°
2026-04-15 14:36 38.54300 68.90552 6181 ft 218 kts 89°
2026-04-15 14:36 38.54310 68.92527 6891 ft 225 kts 90°
2026-04-15 14:36 38.54314 68.94553 7651 ft 230 kts 90°
2026-04-15 14:36 38.54517 68.96598 8389 ft 235 kts 72°
2026-04-15 14:37 38.55151 68.98515 9206 ft 235 kts 68°
2026-04-15 14:37 38.55749 69.00451 9995 ft 233 kts 70°
2026-04-15 14:37 38.56316 69.02381 10781 ft 230 kts 71°
2026-04-15 14:37 38.56873 69.04282 11557 ft 226 kts 71°
2026-04-15 14:38 38.57420 69.06147 12309 ft 222 kts 71°
2026-04-15 14:38 38.57778 69.07364 12753 ft 222 kts 71°
2026-04-15 14:38 38.58095 69.09303 13258 ft 228 kts 98°
2026-04-15 14:38 38.57485 69.11241 13325 ft 255 kts 133°
2026-04-15 14:39 38.55268 69.12536 13598 ft 283 kts 181°
2026-04-15 14:39 38.53401 69.11832 14420 ft 283 kts 211°
2026-04-15 14:39 38.51736 69.10507 15275 ft 283 kts 207°
2026-04-15 14:39 38.50533 69.09755 15734 ft 287 kts 204°
2026-04-15 14:40 38.48111 69.08305 16652 ft 292 kts 205°
2026-04-15 14:40 38.46277 69.07160 17334 ft 296 kts 206°
2026-04-15 14:40 38.44466 69.05864 17913 ft 303 kts 218°
2026-04-15 14:40 38.43137 69.03762 18479 ft 308 kts 240°
2026-04-15 14:41 38.42441 69.02157 19039 ft 305 kts 238°
2026-04-15 14:41 38.40932 68.99101 19847 ft 310 kts 236°
2026-04-15 14:41 38.40134 68.97545 20250 ft 312 kts 236°
2026-04-15 14:41 38.38946 68.95220 20863 ft 314 kts 236°
2026-04-15 14:42 38.37762 68.92876 21449 ft 316 kts 236°
2026-04-15 14:42 38.36576 68.90506 21993 ft 319 kts 236°
2026-04-15 14:42 38.35377 68.88103 22400 ft 327 kts 236°
2026-04-15 14:42 38.34153 68.85647 22966 ft 329 kts 236°
2026-04-15 14:43 38.33205 68.82964 23401 ft 339 kts 258°
2026-04-15 14:43 38.33286 68.79967 23988 ft 343 kts 284°
2026-04-15 14:43 38.34315 68.77226 24536 ft 347 kts 307°
2026-04-15 14:43 38.36098 68.75160 25087 ft 349 kts 330°
2026-04-15 14:44 38.38372 68.74135 25612 ft 348 kts 352°
2026-04-15 14:44 38.40752 68.73792 26242 ft 344 kts
2026-04-15 14:44 38.43117 68.74229 26558 ft 344 kts 21°
2026-04-15 14:44 38.45332 68.75318 27116 ft 341 kts 24°
2026-04-15 14:45 38.47523 68.76393 27509 ft 343 kts 23°
2026-04-15 14:45 38.49751 68.77465 27968 ft 342 kts 22°
2026-04-15 14:45 38.51977 68.78533 28397 ft 342 kts 22°
2026-04-15 14:45 38.54202 68.79597 28836 ft 341 kts 21°
2026-04-15 14:46 38.56502 68.80393 29123 ft 347 kts 12°
2026-04-15 14:46 38.58906 68.80903 29333 ft 353 kts 10°
2026-04-15 14:46 38.61362 68.81413 29396 ft 364 kts 11°
2026-04-15 14:46 38.63907 68.81985 29342 ft 379 kts 12°
2026-04-15 14:47 38.66566 68.82473 29348 ft 392 kts
2026-04-15 14:47 38.69328 68.82806 29346 ft 405 kts
2026-04-15 14:47 38.72170 68.83105 29349 ft 415 kts
2026-04-15 14:48 38.78045 68.83772 29346 ft 432 kts
2026-04-15 14:48 38.84133 68.84538 29347 ft 446 kts
2026-04-15 14:49 38.90431 68.85142 29324 ft 461 kts
2026-04-15 14:49 38.96898 68.85576 29310 ft 471 kts
2026-04-15 14:50 39.03462 68.86037 29349 ft 474 kts
2026-04-15 14:50 39.10063 68.86537 29312 ft 476 kts
2026-04-15 14:51 39.16658 68.87046 29091 ft 473 kts
2026-04-15 14:51 39.19933 68.87299 28974 ft 472 kts
2026-04-15 14:51 39.23225 68.87553 28783 ft 477 kts
2026-04-15 14:51 39.26549 68.87809 28598 ft 480 kts
2026-04-15 14:52 39.29864 68.88065 28292 ft 473 kts
2026-04-15 14:52 39.33120 68.88317 27935 ft 465 kts
2026-04-15 14:52 39.36326 68.88581 27611 ft 459 kts
2026-04-15 14:52 39.39506 68.88864 27186 ft 457 kts
2026-04-15 14:53 39.42662 68.89151 26799 ft 454 kts
2026-04-15 14:53 39.45806 68.89437 26394 ft 452 kts
2026-04-15 14:53 39.48894 68.89715 25996 ft 450 kts
2026-04-15 14:53 39.52012 68.89993 25602 ft 448 kts
2026-04-15 14:54 39.55114 68.90269 25204 ft 446 kts
2026-04-15 14:54 39.58199 68.90539 24808 ft 444 kts
2026-04-15 14:54 39.61280 68.90797 24397 ft 441 kts
2026-04-15 14:54 39.64330 68.91050 24002 ft 437 kts
2026-04-15 14:55 39.67342 68.91299 23609 ft 431 kts
2026-04-15 14:55 39.70314 68.91546 23201 ft 425 kts
2026-04-15 14:55 39.73249 68.91791 22731 ft 421 kts
2026-04-15 14:55 39.76167 68.92035 22235 ft 418 kts
2026-04-15 14:56 39.79053 68.92277 21773 ft 414 kts
2026-04-15 14:56 39.81915 68.92518 21301 ft 410 kts
2026-04-15 14:56 39.84754 68.92757 20826 ft 407 kts
2026-04-15 14:56 39.87565 68.92993 20351 ft 404 kts
2026-04-15 14:57 39.90361 68.93229 19881 ft 401 kts
2026-04-15 14:57 39.93129 68.93462 19406 ft 398 kts
2026-04-15 14:57 39.95885 68.93695 18931 ft 395 kts
2026-04-15 14:57 39.98615 68.93926 18457 ft 392 kts
2026-04-15 14:58 40.01325 68.94155 17984 ft 389 kts
2026-04-15 14:58 40.04011 68.94382 17494 ft 383 kts
2026-04-15 14:58 40.06638 68.94614 17008 ft 373 kts
2026-04-15 14:58 40.09108 68.95452 16371 ft 366 kts 29°
2026-04-15 14:59 40.10975 68.97581 15893 ft 354 kts 57°
2026-04-15 14:59 40.11852 69.00490 15438 ft 341 kts 85°
2026-04-15 14:59 40.11741 69.03526 15097 ft 330 kts 100°
2026-04-15 14:59 40.11319 69.06448 14620 ft 327 kts 102°
2026-04-15 15:00 40.10968 69.09388 14462 ft 329 kts 97°
2026-04-15 15:00 40.10847 69.12399 14202 ft 335 kts 90°
2026-04-15 15:00 40.10960 69.15392 14000 ft 334 kts 85°
2026-04-15 15:00 40.11252 69.18385 13764 ft 332 kts 82°
2026-04-15 15:01 40.11663 69.21354 13503 ft 332 kts 79°
2026-04-15 15:01 40.12147 69.24301 13187 ft 333 kts 78°
2026-04-15 15:01 40.12677 69.27248 12896 ft 332 kts 77°
2026-04-15 15:01 40.13229 69.30170 12594 ft 332 kts 77°
2026-04-15 15:02 40.13793 69.33089 12295 ft 331 kts 77°
2026-04-15 15:02 40.14359 69.35984 11979 ft 327 kts 76°
2026-04-15 15:02 40.14922 69.38843 11687 ft 322 kts 76°
2026-04-15 15:02 40.15477 69.41659 11385 ft 318 kts 76°
2026-04-15 15:03 40.16027 69.44448 11084 ft 316 kts 76°
2026-04-15 15:03 40.16572 69.47217 10784 ft 314 kts 76°
2026-04-15 15:03 40.17114 69.49971 10482 ft 312 kts 76°
2026-04-15 15:03 40.17651 69.52703 10183 ft 310 kts 76°
2026-04-15 15:04 40.18186 69.55431 9873 ft 308 kts 77°
2026-04-15 15:04 40.18717 69.58138 9583 ft 307 kts 77°
2026-04-15 15:04 40.19243 69.60827 9281 ft 303 kts 77°
2026-04-15 15:04 40.19762 69.63485 9002 ft 300 kts 77°
2026-04-15 15:05 40.20275 69.66109 8726 ft 296 kts 77°
2026-04-15 15:05 40.20781 69.68701 8446 ft 293 kts 77°
2026-04-15 15:05 40.21281 69.71268 8171 ft 289 kts 77°
2026-04-15 15:05 40.21775 69.73808 7894 ft 287 kts 77°
2026-04-15 15:06 40.23661 69.78233 7299 ft 284 kts 45°
2026-04-15 15:06 40.25013 69.80049 7055 ft 275 kts 49°
2026-04-15 15:06 40.26253 69.81928 6768 ft 269 kts 51°
2026-04-15 15:07 40.27450 69.83765 6490 ft 262 kts 51°
2026-04-15 15:07 40.28625 69.85559 6205 ft 257 kts 51°
2026-04-15 15:07 40.29777 69.87310 5926 ft 251 kts 51°
2026-04-15 15:07 40.30851 69.89071 5642 ft 243 kts 61°
2026-04-15 15:08 40.31235 69.91128 5317 ft 230 kts 96°
2026-04-15 15:08 40.30700 69.93006 5085 ft 216 kts 124°
2026-04-15 15:08 40.29628 69.94311 4814 ft 209 kts 148°
2026-04-15 15:08 40.28275 69.94944 4521 ft 207 kts 170°
2026-04-15 15:09 40.26853 69.94802 4251 ft 206 kts 196°
2026-04-15 15:09 40.25605 69.93915 4065 ft 206 kts 217°
2026-04-15 15:09 40.24751 69.92397 3777 ft 214 kts 255°
2026-04-15 15:09 40.24891 69.90517 3564 ft 210 kts 299°
2026-04-15 15:10 40.25585 69.88862 3410 ft 210 kts 295°
2026-04-15 15:10 40.25673 69.86971 3096 ft 212 kts 251°
2026-04-15 15:10 40.25001 69.85313 2949 ft 202 kts 243°
2026-04-15 15:10 40.24330 69.83702 2701 ft 201 kts 238°
2026-04-15 15:11 40.23650 69.82115 2487 ft 198 kts 244°
2026-04-15 15:11 40.23139 69.80495 2257 ft 187 kts 252°
2026-04-15 15:11 40.22792 69.78937 2106 ft 174 kts 255°
2026-04-15 15:11 40.22528 69.77398 2004 ft 173 kts 259°
2026-04-15 15:12 40.22313 69.75883 1977 ft 170 kts 260°
2026-04-15 15:12 40.22120 69.74364 1988 ft 168 kts 261°
2026-04-15 15:12 40.21945 69.72877 1968 ft 167 kts 260°
2026-04-15 15:12 40.21772 69.71347 1979 ft 171 kts 262°
2026-04-15 15:13 40.21569 69.69799 1977 ft 179 kts 260°
2026-04-15 15:13 40.21398 69.68184 2037 ft 179 kts 261°
2026-04-15 15:13 40.21211 69.66399 2411 ft 218 kts 263°
2026-04-15 15:13 40.20997 69.64347 3046 ft 233 kts 263°
2026-04-15 15:14 40.20765 69.62269 4000 ft 229 kts 263°
2026-04-15 15:14 40.20872 69.60197 4232 ft 228 kts 297°
2026-04-15 15:14 40.21920 69.58721 4491 ft 228 kts 335°
2026-04-15 15:14 40.23443 69.58439 4494 ft 222 kts 17°
2026-04-15 15:15 40.24695 69.59504 4463 ft 216 kts 58°
2026-04-15 15:15 40.25056 69.61355 4468 ft 216 kts 99°
2026-04-15 15:15 40.24445 69.63100 4522 ft 217 kts 123°
2026-04-15 15:15 40.23778 69.64878 4446 ft 220 kts 96°
2026-04-15 15:16 40.23993 69.66816 4512 ft 217 kts 71°
2026-04-15 15:16 40.24464 69.68710 4482 ft 219 kts 75°
2026-04-15 15:16 40.24853 69.70627 4473 ft 217 kts 76°
2026-04-15 15:16 40.25209 69.72534 4480 ft 214 kts 77°
2026-04-15 15:17 40.25532 69.74428 4473 ft 213 kts 78°
2026-04-15 15:17 40.25816 69.76334 4481 ft 213 kts 80°
2026-04-15 15:17 40.26062 69.78247 4485 ft 213 kts 81°
2026-04-15 15:17 40.26275 69.80151 4451 ft 209 kts 82°
2026-04-15 15:18 40.26469 69.82024 4265 ft 206 kts 82°
2026-04-15 15:18 40.26667 69.83857 4108 ft 201 kts 81°
2026-04-15 15:18 40.26873 69.85666 3932 ft 201 kts 81°
2026-04-15 15:18 40.27095 69.87473 3768 ft 201 kts 80°
2026-04-15 15:19 40.27281 69.89285 3598 ft 201 kts 89°
2026-04-15 15:19 40.26800 69.90928 3563 ft 195 kts 133°
2026-04-15 15:19 40.25598 69.91729 3574 ft 199 kts 170°
2026-04-15 15:19 40.24260 69.91412 3586 ft 198 kts 209°
2026-04-15 15:20 40.23340 69.90096 3570 ft 201 kts 248°
2026-04-15 15:20 40.23084 69.88312 3620 ft 201 kts 268°
2026-04-15 15:20 40.22966 69.86474 3456 ft 204 kts 265°
2026-04-15 15:20 40.22814 69.84650 3275 ft 199 kts 265°
2026-04-15 15:21 40.22664 69.82864 3092 ft 195 kts 266°
2026-04-15 15:21 40.22519 69.81134 2910 ft 187 kts 266°
2026-04-15 15:21 40.22381 69.79423 2740 ft 192 kts 265°
2026-04-15 15:21 40.22239 69.77691 2551 ft 192 kts 265°
2026-04-15 15:22 40.22097 69.75954 2274 ft 189 kts 264°
2026-04-15 15:22 40.21962 69.74312 2048 ft 175 kts 265°
2026-04-15 15:22 40.21840 69.72804 1815 ft 161 kts 264°
2026-04-15 15:22 40.21733 69.71358 1591 ft 162 kts 264°
2026-04-15 15:23 40.21591 69.69919 1435 ft 153 kts 266°
2026-04-15 15:23 40.21459 69.68713 1444 ft 105 kts 257°
2026-04-15 15:23 40.21393 69.68046 1454 ft 23 kts 278°
2026-04-15 15:23 40.21411 69.67910 1454 ft 11 kts 285°
2026-04-15 15:24 40.21405 69.67865 1453 ft 3 kts 226°
2026-04-15 15:24 40.21386 69.67861 1457 ft 2 kts 165°
2026-04-15 15:24 40.21377 69.67877 1457 ft 2 kts 117°
2026-04-15 15:24 40.21374 69.67900 1456 ft 3 kts 84°